Weather History for Geneva, Switzerland

Change the Weather History Date:

Monday, July 1, 2013

  Actual Average Record
Temperature  
Mean Temperature 64 °F -  
Max Temperature 80 °F 76 °F 87 °F (2008)
Min Temperature 49 °F 53 °F 48 °F (2014)
Growing Degree Days 14 (Base 50)    
Moisture  
Dew Point 53 °F    
Average Humidity 64    
Maximum Humidity 100    
Minimum Humidity 27    
Precipitation  
Precipitation 0.00 in 0.09 in - ()
Sea Level Pressure  
Sea Level Pressure 30.09 in    
Wind  
Wind Speed 2 mph ()    
Max Wind Speed 8 mph    
Max Gust Speed -    
Visibility 6.2 miles    
Events      
Averages and records for this station are not official NWS values.
T = Trace of Precipitation, MM = Missing Value Source: Averaged Metar Reports

Daily Weather History Graph

Daily Weather History Graph

Search for Another Location

Airport:

Trip Planner

Search our weather history database for the weather conditions in past years. The results will help you decide how hot, cold, wet, or windy it might be!

Date:

Astronomy

Jul. 01, 2013 Rise Set
Actual Time 5:47 AM CEST 9:30 PM CEST
Civil Twilight 5:09 AM CEST 10:09 PM CEST
Nautical Twilight 4:17 AM CEST 11:01 PM CEST
Astronomical Twilight 3:04 AM CEST 12:13 AM CEST
Moon 1:23 AM CEST (7/1) 3:17 PM CEST (7/1)
Length of Visible Light 17h 00m
Length of Day
15h 43m
Last Quarter, 38% of the Moon is Illuminated
Jul 1
Last Quarter
Jul 8
New
Jul 16
First Quarter
Jul 22
Full
Jul 29
Last Quarter

Hourly Weather History & Observations

Time (CEST) Temp. Heat Index Dew Point Humidity Pressure Visibility Wind Dir Wind Speed Gust Speed Precip Events Conditions
12:00 AM 56 °F - 52 °F 82% 30.17 in - NNW 1.2 mph - -  
12:20 AM 55.4 °F - 51.8 °F 88% 30.18 in - West 1.2 mph - N/A   Clear
12:50 AM 55.4 °F - 51.8 °F 88% 30.15 in - Variable 2.3 mph - N/A   Clear
1:00 AM 55 °F - 51 °F 83% 30.17 in - NNW 1.2 mph - -  
1:20 AM 53.6 °F - 51.8 °F 94% 30.15 in - Calm Calm - N/A   Clear
1:50 AM 53.6 °F - 51.8 °F 94% 30.15 in - Calm Calm - N/A   Clear
2:00 AM 54 °F - 50 °F 81% 30.17 in 25 mi NW 1.2 mph - -  
2:20 AM 53.6 °F - 50.0 °F 88% 30.15 in - Calm Calm - N/A   Clear
2:50 AM 51.8 °F - 50.0 °F 94% 30.15 in - Calm Calm - N/A   Clear
3:00 AM 52 °F - 50 °F 89% 30.16 in - WSW 1.2 mph - -  
3:50 AM 50.0 °F - 50.0 °F 100% 30.15 in - Variable 1.2 mph - N/A   Clear
4:00 AM 51 °F - 49 °F 92% 30.15 in - North 1.2 mph - -  
4:20 AM 50.0 °F - 50.0 °F 100% 30.12 in - Calm Calm - N/A   Clear
5:20 AM 50.0 °F - 50.0 °F 100% 30.12 in - Calm Calm - N/A   Clear
5:50 AM 50.0 °F - 48.2 °F 94% 30.12 in - Calm Calm - N/A   Clear
6:00 AM 50 °F - 48 °F 91% 30.16 in - NW 2.3 mph - -  
6:20 AM 50.0 °F - 48.2 °F 94% 30.12 in 6.2 mi Variable 1.2 mph - N/A   Partly Cloudy
6:50 AM 51.8 °F - 50.0 °F 94% 30.12 in 6.2 mi Calm Calm - N/A   Partly Cloudy
7:00 AM 52 °F - 49 °F 88% 30.15 in - ENE 1.2 mph - -  
7:20 AM 55.4 °F - 51.8 °F 88% 30.12 in 6.2 mi Calm Calm - N/A   Partly Cloudy
7:50 AM 59.0 °F - 53.6 °F 82% 30.12 in 6.2 mi Calm Calm - N/A   Partly Cloudy
8:00 AM 58 °F - 52 °F 73% 30.14 in 25 mi NE 1.2 mph - -   Scattered Clouds
8:20 AM 60.8 °F - 53.6 °F 77% 30.12 in 6.2 mi Variable 1.2 mph - N/A   Partly Cloudy
8:50 AM 62.6 °F - 53.6 °F 72% 30.15 in 6.2 mi Calm Calm - N/A   Partly Cloudy
9:00 AM 60 °F - 51 °F 65% 30.13 in - East 2.3 mph - -  
9:20 AM 64.4 °F - 51.8 °F 64% 30.15 in 6.2 mi Variable 2.3 mph - N/A   Partly Cloudy
9:50 AM 66.2 °F - 53.6 °F 64% 30.12 in 6.2 mi Variable 2.3 mph - N/A   Partly Cloudy
10:00 AM 63 °F - 51 °F 57% 30.12 in - NNE 3.5 mph - -  
10:20 AM 66.2 °F - 51.8 °F 60% 30.12 in 6.2 mi NE 5.8 mph - N/A   Partly Cloudy
10:50 AM 66.2 °F - 51.8 °F 60% 30.12 in 6.2 mi ENE 6.9 mph - N/A   Partly Cloudy
11:20 AM 68.0 °F - 53.6 °F 60% 30.12 in 6.2 mi NE 8.1 mph - N/A   Partly Cloudy
11:50 AM 66.2 °F - 53.6 °F 64% 30.12 in 6.2 mi East 6.9 mph - N/A   Partly Cloudy
12:00 PM 67 °F - 52 °F 48% 30.09 in - ENE 4.6 mph - -  
12:20 PM 69.8 °F - 53.6 °F 56% 30.12 in 6.2 mi ENE 4.6 mph - N/A   Partly Cloudy
12:50 PM 69.8 °F - 51.8 °F 53% 30.12 in 6.2 mi ENE 4.6 mph - N/A   Partly Cloudy
1:00 PM 70 °F - 53 °F 44% 30.07 in - ENE 3.5 mph - -  
1:20 PM 71.6 °F - 53.6 °F 53% 30.09 in 6.2 mi East 5.8 mph - N/A   Partly Cloudy
1:50 PM 71.6 °F - 53.6 °F 53% 30.09 in 6.2 mi East 5.8 mph - N/A   Partly Cloudy
2:00 PM 71 °F - 53 °F 43% 30.05 in 25 mi ENE 5.8 mph - -   Scattered Clouds
2:20 PM 73.4 °F - 53.6 °F 50% 30.09 in 6.2 mi ENE 4.6 mph - N/A   Partly Cloudy
2:50 PM 75.2 °F - 51.8 °F 44% 30.06 in 6.2 mi Variable 3.5 mph - N/A   Partly Cloudy
3:00 PM 74 °F - 51 °F 34% 30.03 in - North 3.5 mph - -  
3:20 PM 77.0 °F - 53.6 °F 44% 30.06 in 6.2 mi Variable 3.5 mph - N/A   Partly Cloudy
3:50 PM 77.0 °F - 53.6 °F 44% 30.06 in 6.2 mi Variable 3.5 mph - N/A   Partly Cloudy
4:00 PM 77 °F - 53 °F 32% 30.00 in - East 3.5 mph - -  
4:20 PM 78.8 °F - 55.4 °F 44% 30.04 in 6.2 mi Variable 4.6 mph - N/A   Partly Cloudy
4:50 PM 78.8 °F - 55.4 °F 44% 30.04 in 6.2 mi Variable 4.6 mph - N/A   Partly Cloudy
5:20 PM 80.6 °F 80.5 °F 55.4 °F 42% 30.04 in 6.2 mi Variable 3.5 mph - N/A   Partly Cloudy
5:50 PM 80.6 °F - 51.8 °F 37% 30.04 in 6.2 mi SW 5.8 mph - N/A   Partly Cloudy
6:00 PM 79 °F - 53 °F 30% 29.96 in - WSW 3.5 mph - -  
6:20 PM 80.6 °F - 50.0 °F 34% 30.01 in 6.2 mi South 5.8 mph - N/A   Partly Cloudy
6:50 PM 80.6 °F 80.3 °F 53.6 °F 39% 30.01 in 6.2 mi SW 5.8 mph - N/A   Partly Cloudy
7:00 PM 80 °F - 52 °F 27% 29.95 in - SW 8.1 mph - -  
7:20 PM 80.6 °F 80.3 °F 53.6 °F 39% 30.01 in 6.2 mi SW 6.9 mph - N/A   Partly Cloudy
7:50 PM 78.8 °F - 53.6 °F 42% 30.01 in 6.2 mi WSW 8.1 mph - N/A   Partly Cloudy
8:00 PM 78 °F - 52 °F 29% 29.96 in 37 mi WSW 6.9 mph - -   Scattered Clouds
8:20 PM 77.0 °F - 51.8 °F 41% 30.01 in 6.2 mi WSW 5.8 mph - N/A   Partly Cloudy
8:50 PM 75.2 °F - 53.6 °F 47% 30.04 in 6.2 mi WSW 4.6 mph - N/A   Partly Cloudy
9:00 PM 69 °F - 56 °F 53% 29.99 in - West 4.6 mph - -  
9:20 PM 69.8 °F - 55.4 °F 60% 30.04 in - Variable 1.2 mph - N/A   Clear
9:50 PM 68.0 °F - 55.4 °F 64% 30.04 in 6.2 mi Variable 3.5 mph - N/A   Partly Cloudy
10:00 PM 66 °F - 56 °F 63% 30.02 in - NE 2.3 mph - -  
10:20 PM 66.2 °F - 57.2 °F 73% 30.06 in 6.2 mi Variable 2.3 mph - N/A   Partly Cloudy
10:50 PM 64.4 °F - 57.2 °F 77% 30.06 in 6.2 mi Variable 1.2 mph - N/A   Partly Cloudy
11:20 PM 64.4 °F - 57.2 °F 77% 30.06 in 6.2 mi Calm Calm - N/A   Partly Cloudy
11:50 PM 64.4 °F - 57.2 °F 77% 30.06 in 6.2 mi Variable 1.2 mph - N/A   Partly Cloudy